Regional Weather Roundup
Issued by NWS

Home | Current Version | Previous Version | Graphics & Text | Print | Product List | Glossary On
Versions: 1 2 3 4 5 6 7 8 9 10 11 12 13 14 15 16 17 18 19 20 21 22 23 24 25 26 27 28 29 30 31 32 33 34 35 36 37 38 39 40 41 42 43 44 45 46 47 48 49 50
000
ASUS43 KFSD 202202
RWRSD

WEATHER ROUNDUP FOR SOUTH DAKOTA
NATIONAL WEATHER SERVICE SIOUX FALLS SD
500 PM CDT SUN AUG 20 2017

NOTE: "FAIR" INDICATES FEW OR NO CLOUDS BELOW 12,000 FEET WITH NO
SIGNIFICANT WEATHER AND/OR OBSTRUCTIONS TO VISIBILITY.


SDZ001>005-009-010-012>017-202300-
NORTHWEST AND NORTH CENTRAL SOUTH DAKOTA

CITY           SKY/WX    TMP DP  RH WIND       PRES   REMARKS
BUFFALO          N/A     82  36  19 SE22G30   29.93F
FAITH            N/A     78  43  28 E16       30.01F
MOBRIDGE       CLOUDY    73  49  42 NE12      30.02S
$$

SDZ012>016-024>037-041>051-057-063-072>074-202300-
SOUTHWEST AND SOUTH CENTRAL SOUTH DAKOTA

CITY           SKY/WX    TMP DP  RH WIND       PRES   REMARKS
RAPID CTY ARPT SUNNY     81  51  35 S13       30.01F
PIERRE         SUNNY     79  47  32 E15       29.99F
CUSTER         SUNNY     71  49  45 SE9G21    30.13F
ELLSWORTH AFB  MOSUNNY   81  51  34 S16G23    30.01F
PHILIP         SUNNY     85  51  31 E15       29.98F
PINE RIDGE     SUNNY     85  54  34 E15G23    30.00F
SPEARFISH      FAIR      82  50  32 E22G28    29.98F
WINNER         FAIR      83  57  41 NE18      29.98F
$$

SDZ004>011-016>023-039-040-202300-
NORTHEAST SOUTH DAKOTA

CITY           SKY/WX    TMP DP  RH WIND       PRES   REMARKS
ABERDEEN       MOSUNNY   71  56  58 SE8       30.02F
WATERTOWN      PTSUNNY   71  56  58 N12       30.04R
BROOKINGS      CLOUDY    75  60  59 NE9       30.02R
SISSETON         N/A     72  59  63 NW6       30.03R
$$

SDZ017-020-022-023-036>040-048>070-202300-
SOUTHEAST SOUTH DAKOTA

CITY           SKY/WX    TMP DP  RH WIND       PRES   REMARKS
SIOUX FALLS    PTSUNNY   80  69  69 NE14      29.97S
HURON          MOSUNNY   76  56  49 NE16      30.00F
CHAMBERLAIN    SUNNY     82  56  40 N12G18    29.99F
MITCHELL       MOSUNNY   81  65  58 N15       29.98S
YANKTON        CLOUDY    84  68  58 NE7       29.95S
$$

ABBREVIATIONS USED IN REMARKS
   TC - TEMPERATURE IN CELSIUS
  WCI - WIND CHILL INDEX
   HX - HEAT INDEX
  VSB - VISIBILITY





USA.gov is the U.S. government's official web portal to all federal, state and local government web resources and services.